Hourly Data Report for October 28, 2014

All times are specified in Local Standard Time (LST). Add 1 hour to adjust for Daylight Saving Time where and when it is observed.

CLYDE RIVER A
NUNAVUT

70°29'09.000" N
68°31'01.000" W
26.50 m
2400804
71090
YCY

Download Data

Hourly Data (October 2014)
Hourly Data Report for October 28, 2014
Temp Definition
°C
Dew Point Temp Definition
°C
Rel Hum Definition
%
Wind Dir Definition
10's deg

Wind Spd Definition
km/h
Visibility Definition
km
Stn Press Definition
kPa
Hmdx Definition


Wind Chill Definition


Weather Definition


TIME
00:00 Legend Double Dagger -6.5 -9.3 81 16 15 16.1 101.43   -12 LegendNANA
01:00 Legend Double Dagger -6.3 -9.4 79 17 17 16.1 101.42   -13 LegendNANA
02:00 Legend Double Dagger -7.3 -9.6 84 17 13 16.1 101.40   -13 LegendNANA
03:00 Legend Double Dagger -7.1 -9.6 82 14 8 16.1 101.37   -11 LegendNANA
04:00 Legend Double Dagger -6.4 -9.3 80 17 11 16.1 101.33   -11 LegendNANA
05:00 Legend Double Dagger -6.6 -7.8 91 15 13 12.9 101.29   -12 Snow
06:00 Legend Double Dagger -6.1 -7.1 93 15 11 9.7 101.24   -11 Snow
07:00 Legend Double Dagger -5.3 -6.3 93 16 17 14.5 101.20   -11 Snow
08:00 Legend Double Dagger -4.9 -6.0 92 15 22 11.3 101.15   -12 Snow
09:00 Legend Double Dagger -4.7 -5.6 93 14 21 4.8 101.09   -11 Snow
10:00 Legend Double Dagger -4.4 -5.4 93 15 21 2.4 101.04   -11 Snow
11:00 Legend Double Dagger -4.2 -5.6 90 15 28 8.1 101.00   -12 Snow
12:00 Legend Double Dagger -4.2 -5.3 92 14 26 8.1 100.95   -11 Snow
13:00 Legend Double Dagger -4.1 -5.9 87 16 22 16.1 100.94   -11 Snow
14:00 Legend Double Dagger -4.0 -5.1 92 15 24 4.8 100.91   -11 Snow
15:00 Legend Double Dagger -4.3 -5.4 92 15 24 16.1 100.87   -11 Snow
16:00 Legend Double Dagger -4.3 -5.4 92 15 18 12.9 100.84   -10 Snow
17:00 Legend Double Dagger -3.9 -5.4 89 16 15 16.1 100.79   -9 Snow
18:00 Legend Double Dagger -3.6 -5.5 87 16 17 12.9 100.74   -9 Snow
19:00 Legend Double Dagger -3.5 -5.0 90 14 15 12.9 100.70   -9 Snow
20:00 Legend Double Dagger -3.9 -4.7 94 16 18 9.7 100.65   -10 Snow
21:00 Legend Double Dagger -3.9 -4.7 94 15 21 4.8 100.58   -10 Snow
22:00 Legend Double Dagger -3.7 -4.7 93 18 13 6.4 100.55   -9 Snow
23:00 Legend Double Dagger -3.7 -4.8 92 17 15 14.5 100.50   -9 Snow

Notes on Data Quality.

Legend

  • E = Estimated
  • M = Missing
  • NA = Not Available
  • ‡ = Partner data that is not subject to review by the National Climate Archives
Date modified: